[[{"header":{"parameterUnit":"m.s-1","parameterCategory":2,"la1":30.2991,"la2":30.254,"lo1":-89.0895,"lo2":-89.0444,"dy":0.0017,"dx":0.0017,"nx":28,"ny":28,"refTime":"2023-09-08T03:00:00:Z","depth":"0","parameterNumber":2,"parameterNumberName":"U-component_of_CURRENTS"},"data":[0,0,0,0,0,0,0,0,0,0,0,0,0,0,0,0,0,0,0,0,0,0,0,0,0,0,0,0,0,0,0,0,0,0,0,0,0,0,0,0,0,0,0,0,0,0,0,0,0,0,0,0,0,0,0,0,0,0,0.2202,0.2202,0,0.2233,0.2233,0.2233,0.2228,0.2228,0.2228,0.2228,0.2209,0.2209,0.2209,0,0,0,0,0,0,0,0,0,0,0,0,0,0.2134,0.2135,0.2202,0.2202,0.2203,0.2233,0.2233,0.2233,0.2228,0.2228,0.2228,0.2227,0.2209,0.2209,0.2209,0,0,0,0,0,0,0,0,0,0,0,0,0,0.2161,0.2135,0.2202,0.2207,0.2208,0.2233,0.2233,0.2233,0.2228,0.2228,0.2228,0.2227,0.2209,0.2209,0.2209,0.2214,0,0,0.2208,0.2207,0,0,0,0,0,0,0,0,0.2159,0.2163,0.2205,0.2206,0.2208,0.2229,0.2203,0.2226,0.2229,0.2217,0.2228,0.2227,0.2214,0.2213,0.2216,0.2213,0.2212,0.2208,0.2207,0.2207,0.2207,0,0,0,0,0,0,0,0.2157,0.2162,0.2211,0.2206,0.2207,0.2206,0.2209,0.2207,0.2214,0.2218,0.2219,0.2227,0.2214,0.2216,0.2215,0.2212,0.2208,0.2207,0.2207,0.2207,0.2232,0.2233,0,0,0,0,0,0,0.2161,0.216,0.221,0.2212,0.2186,0.2208,0.2211,0.222,0.2215,0.2215,0.2228,0.2227,0.2217,0.2216,0.2215,0.2242,0.2207,0.2207,0.2207,0.2232,0.2233,0.2234,0,0,0,0,0,0,0.2159,0.2165,0.2209,0.2189,0.2195,0.221,0.222,0.2221,0.2228,0.2223,0.2222,0.2234,0.2217,0.2215,0.2225,0.224,0.2207,0.2206,0.223,0.2232,0.2233,0.2282,0,0,0,0,0,0,0.2157,0.2164,0.2169,0.219,0.2196,0.2236,0.222,0.2222,0.2236,0.2235,0.2229,0.2226,0.2216,0.2226,0.2225,0.2239,0.2206,0.2229,0.2231,0.2233,0.2279,0.2285,0.229,0,0,0,0,0,0.2155,0.2169,0.2169,0.2176,0.2204,0.2237,0.224,0.2247,0.2236,0.2249,0.2244,0.2227,0.2236,0.2227,0.2225,0.2239,0.2228,0.2231,0.2233,0.2277,0.2284,0.2289,0,0,0,0,0,0,0.2139,0.217,0.2171,0.2193,0.2217,0.2237,0.225,0.2252,0.2258,0.2253,0.224,0.2238,0.2253,0.2241,0.2231,0.2252,0.2229,0.223,0.2263,0.2269,0.2274,0.2267,0.2206,0,0,0,0,0,0.214,0.2159,0.2187,0.2205,0.2218,0.2233,0.2245,0.2251,0.2262,0.2264,0.2262,0.2257,0.226,0.226,0.2261,0.2272,0.2264,0.228,0.2285,0.229,0.2283,0.2289,0.2294,0.224,0.224,0.224,0,0,0.2136,0.2158,0.2167,0.2203,0.2219,0.2247,0.2239,0.2264,0.2282,0.226,0.228,0.2276,0.2268,0.2284,0.2288,0.2275,0.2305,0.2292,0.2296,0.2287,0.2292,0.2297,0.2302,0.2242,0.2241,0.2241,0,0,0.2152,0.2162,0.2188,0.2212,0.2246,0.2258,0.2268,0.2294,0.23,0.2322,0.231,0.2315,0.2322,0.2319,0.2317,0.235,0.2334,0.2353,0.2372,0.2378,0.2383,0.2386,0.2401,0.2405,0.2354,0.2354,0.2354,0,0.2145,0.2181,0.22,0.2234,0.2253,0.2265,0.2294,0.2308,0.2333,0.2338,0.2334,0.2344,0.2337,0.235,0.2362,0.2361,0.2365,0.2349,0.2385,0.2388,0.2391,0.2404,0.2409,0.2357,0.2357,0.2356,0.2356,0,0.2184,0.2211,0.223,0.2274,0.2296,0.2323,0.2348,0.2367,0.2372,0.2381,0.2399,0.2394,0.2397,0.24,0.239,0.2408,0.2407,0.2393,0.2368,0.2399,0.2412,0.2415,0.2361,0.236,0.2359,0.2358,0,0,0.2174,0.2242,0.2248,0.2266,0.2316,0.2333,0.237,0.24,0.2415,0.2432,0.2448,0.2455,0.2448,0.2444,0.2436,0.2437,0.2467,0.2425,0.2425,0.2438,0.2493,0.2589,0.2601,0.2462,0.2463,0.2463,0.25,0,0.2197,0.2254,0.2286,0.2328,0.2354,0.2378,0.2408,0.2433,0.2452,0.2472,0.2468,0.2481,0.2467,0.247,0.2473,0.2467,0.2476,0.2459,0.2461,0.2461,0.2541,0.2608,0.2659,0.2705,0.2503,0.2504,0.2504,0,0.2225,0.2257,0.2302,0.2346,0.2359,0.2385,0.242,0.245,0.2484,0.2497,0.2513,0.2515,0.2527,0.2505,0.2518,0.2511,0.2505,0.2498,0.2499,0.257,0.2564,0.2638,0.2718,0.259,0.2509,0.2509,0.2508,0,0.22,0.2265,0.2294,0.2311,0.2366,0.2385,0.2412,0.2454,0.2475,0.2514,0.2534,0.2548,0.256,0.2556,0.2563,0.254,0.2578,0.2543,0.2622,0.2628,0.2662,0.2672,0.2616,0.2546,0.2546,0.2546,0.2546,0,0.2208,0.2229,0.2282,0.2296,0.232,0.2367,0.2397,0.243,0.2476,0.2515,0.2541,0.2578,0.2572,0.2601,0.2587,0.2644,0.2605,0.2644,0.2653,0.2685,0.2695,0.2577,0.2534,0.2547,0.2547,0.2547,0.2547,0,0.2175,0.2217,0.2244,0.2296,0.231,0.2324,0.2381,0.2404,0.2461,0.2517,0.2533,0.2598,0.2672,0.2681,0.2691,0.2695,0.2667,0.2737,0.2789,0.2805,0.2777,0.2739,0.263,0.2541,0.2837,0.284,0.2842,0,0.2159,0.2173,0.2223,0.2233,0.2257,0.2289,0.2314,0.238,0.2423,0.2543,0.2572,0.2668,0.2762,0.2841,0.289,0.2932,0.276,0.2959,0.2927,0.2807,0.2767,0.2606,0.2523,0.2984,0.2987,0.299,0.2992,0,0.2116,0.2137,0.2158,0.2185,0.221,0.2241,0.2297,0.2324,0.243,0.2516,0.264,0.273,0.2891,0.2996,0.3081,0.3097,0.2864,0.3019,0.2866,0.2876,0.2721,0.263,0.2919,0.3016,0.3014,0.3012,0.3011,0.301,0.207,0.2075,0.2108,0.2127,0.2157,0.2194,0.2207,0.2296,0.2384,0.2511,0.2641,0.277,0.2988,0.3161,0.3166,0.317,0.3054,0.3082,0.3044,0.2886,0.2804,0.3171,0.3299,0.3298,0.3298,0.3297,0.3297,0,0.2014,0.2034,0.2048,0.2078,0.2088,0.2131,0.2192,0.2208,0.2307,0.2475,0.2607,0.2828,0.2998,0.3104,0.3267,0.3195,0.3001,0.3057,0.2803,0.2716,0.3034,0.3047,0.3161,0.3161,0.3161,0.3161,0.3161,0.3161,0.1984,0.1983,0.1998,0.1998,0.2023,0.2015,0.2038,0.2088,0.218,0.2331,0.2458,0.2603,0.2862,0.3117,0.3138,0.3078,0.2766,0.2738,0.2554,0.2765,0.276,0.2755,0.2749,0.28,0.2799,0.2157,0.2153,0.2149]},{"header":{"parameterUnit":"m.s-1","parameterCategory":2,"la1":30.2991,"la2":30.254,"lo1":-89.0895,"lo2":-89.0444,"dy":0.0017,"dx":0.0017,"nx":28,"ny":28,"refTime":"2023-09-08T03:00:00:Z","depth":"0","parameterNumber":3,"parameterNumberName":"V-component_of_CURRENTS"},"data":[0,0,0,0,0,0,0,0,0,0,0,0,0,0,0,0,0,0,0,0,0,0,0,0,0,0,0,0,0,0,0,0,0,0,0,0,0,0,0,0,0,0,0,0,0,0,0,0,0,0,0,0,0,0,0,0,0,0,-0.0328,-0.0329,0,-0.0392,-0.0393,-0.0394,-0.0421,-0.0421,-0.0421,-0.0421,-0.0503,-0.0505,-0.0507,0,0,0,0,0,0,0,0,0,0,0,0,0,-0.0303,-0.0303,-0.0328,-0.0329,-0.033,-0.0392,-0.0393,-0.0394,-0.0421,-0.0421,-0.0421,-0.0421,-0.0502,-0.0505,-0.0507,0,0,0,0,0,0,0,0,0,0,0,0,0,-0.0336,-0.0303,-0.0328,-0.0351,-0.0353,-0.0392,-0.0393,-0.0394,-0.0421,-0.0421,-0.0421,-0.0421,-0.0501,-0.0504,-0.0508,-0.0534,0,0,-0.0518,-0.052,0,0,0,0,0,0,0,0,-0.0334,-0.0336,-0.0347,-0.0349,-0.0352,-0.0398,-0.0414,-0.0441,-0.0421,-0.0396,-0.0421,-0.0421,-0.0469,-0.0475,-0.0488,-0.0537,-0.0541,-0.0519,-0.0521,-0.0522,-0.0523,0,0,0,0,0,0,0,-0.0331,-0.0334,-0.0354,-0.0347,-0.0351,-0.0383,-0.0386,-0.042,-0.0434,-0.0398,-0.04,-0.0407,-0.0471,-0.0485,-0.049,-0.0542,-0.0519,-0.0522,-0.0524,-0.0525,-0.0686,-0.0688,0,0,0,0,0,0,-0.0319,-0.0332,-0.0352,-0.0356,-0.0342,-0.0383,-0.0387,-0.0384,-0.0433,-0.044,-0.0407,-0.0408,-0.0479,-0.0486,-0.0493,-0.0581,-0.0522,-0.0525,-0.0527,-0.0684,-0.0686,-0.0689,0,0,0,0,0,0,-0.0318,-0.032,-0.035,-0.0346,-0.0352,-0.0383,-0.038,-0.0385,-0.0401,-0.0439,-0.0447,-0.0416,-0.0479,-0.0488,-0.0542,-0.0582,-0.0527,-0.053,-0.0681,-0.0685,-0.0688,-0.0721,0,0,0,0,0,0,-0.0317,-0.0319,-0.0314,-0.0344,-0.0351,-0.0382,-0.038,-0.0387,-0.0405,-0.0407,-0.045,-0.0457,-0.048,-0.0536,-0.0545,-0.0586,-0.0533,-0.0678,-0.0683,-0.0687,-0.0717,-0.0725,-0.0732,0,0,0,0,0,-0.0315,-0.0315,-0.0313,-0.0316,-0.0343,-0.0383,-0.039,-0.0412,-0.0405,-0.0423,-0.0456,-0.0456,-0.0569,-0.0541,-0.055,-0.0593,-0.0676,-0.0682,-0.0686,-0.0714,-0.0724,-0.0732,0,0,0,0,0,0,-0.0299,-0.0318,-0.0317,-0.032,-0.0352,-0.0388,-0.0403,-0.0412,-0.045,-0.045,-0.0478,-0.049,-0.0553,-0.0569,-0.0537,-0.0654,-0.0625,-0.0632,-0.0643,-0.0652,-0.066,-0.064,-0.0536,0,0,0,0,0,-0.0292,-0.0298,-0.0324,-0.0329,-0.0342,-0.037,-0.0386,-0.0403,-0.0438,-0.0453,-0.0486,-0.0529,-0.0582,-0.0611,-0.0654,-0.0712,-0.0722,-0.0749,-0.0757,-0.0763,-0.0756,-0.0814,-0.0825,-0.0705,-0.0705,-0.0705,0,0,-0.0285,-0.0298,-0.0299,-0.0326,-0.0349,-0.0386,-0.038,-0.041,-0.0446,-0.0457,-0.0516,-0.0551,-0.0602,-0.0674,-0.0705,-0.0692,-0.0805,-0.0769,-0.0773,-0.0763,-0.082,-0.0832,-0.0842,-0.0708,-0.0708,-0.0707,0,0,-0.03,-0.0288,-0.031,-0.0337,-0.0373,-0.0394,-0.0402,-0.0443,-0.0465,-0.0524,-0.0548,-0.0604,-0.0678,-0.0729,-0.0762,-0.0835,-0.0838,-0.0854,-0.088,-0.0938,-0.0948,-0.0956,-0.0987,-0.0998,-0.0863,-0.0863,-0.0863,0,-0.0292,-0.0317,-0.0325,-0.0363,-0.0383,-0.0398,-0.0435,-0.0468,-0.0524,-0.0546,-0.0549,-0.0668,-0.0708,-0.08,-0.0831,-0.0851,-0.0871,-0.084,-0.0945,-0.0954,-0.0962,-0.0991,-0.1003,-0.0865,-0.0865,-0.0864,-0.0864,0,-0.0336,-0.0355,-0.0371,-0.0419,-0.0445,-0.0474,-0.0515,-0.0545,-0.0566,-0.06,-0.068,-0.074,-0.0806,-0.0843,-0.0861,-0.095,-0.094,-0.0942,-0.0915,-0.0976,-0.1003,-0.1015,-0.0868,-0.0867,-0.0867,-0.0866,0,0,-0.0325,-0.0387,-0.0394,-0.0413,-0.0469,-0.049,-0.0549,-0.0602,-0.0626,-0.0695,-0.0741,-0.085,-0.0861,-0.09,-0.0937,-0.0994,-0.1075,-0.0993,-0.0995,-0.1008,-0.1186,-0.1129,-0.1135,-0.1095,-0.1097,-0.1099,-0.1182,0,-0.0357,-0.0416,-0.0447,-0.05,-0.0526,-0.0554,-0.0601,-0.0648,-0.0687,-0.0736,-0.0805,-0.0862,-0.0891,-0.0917,-0.0986,-0.1042,-0.1107,-0.1051,-0.1137,-0.1139,-0.1069,-0.1148,-0.1014,-0.1072,-0.1193,-0.1195,-0.1196,0,-0.0397,-0.0425,-0.0474,-0.0518,-0.0531,-0.0565,-0.0608,-0.0654,-0.0726,-0.0756,-0.0826,-0.0865,-0.096,-0.0968,-0.1109,-0.107,-0.1134,-0.118,-0.1185,-0.1122,-0.1103,-0.1033,-0.1088,-0.1202,-0.1213,-0.1212,-0.1211,0,-0.0377,-0.0443,-0.047,-0.0488,-0.0546,-0.0566,-0.0594,-0.0656,-0.0675,-0.0757,-0.077,-0.0891,-0.0928,-0.1041,-0.1124,-0.1128,-0.1256,-0.1275,-0.1289,-0.1285,-0.1182,-0.1164,-0.134,-0.1387,-0.1387,-0.1387,-0.1387,0,-0.0392,-0.0415,-0.0455,-0.0469,-0.0484,-0.0537,-0.0559,-0.0603,-0.0655,-0.0655,-0.0765,-0.0779,-0.0946,-0.1026,-0.1128,-0.1225,-0.1265,-0.1302,-0.1312,-0.119,-0.1174,-0.1273,-0.1365,-0.139,-0.1389,-0.1389,-0.1388,0,-0.0371,-0.0405,-0.0428,-0.047,-0.0474,-0.0481,-0.0508,-0.0515,-0.0578,-0.0579,-0.0596,-0.0706,-0.08,-0.095,-0.1115,-0.1203,-0.1362,-0.1342,-0.1171,-0.1159,-0.1282,-0.1379,-0.1564,-0.1621,-0.1393,-0.1392,-0.1392,0,-0.0366,-0.0375,-0.0397,-0.0384,-0.0399,-0.0409,-0.0401,-0.0463,-0.0456,-0.0506,-0.0488,-0.0591,-0.0602,-0.0829,-0.1005,-0.1178,-0.1324,-0.1199,-0.1197,-0.1283,-0.14,-0.1474,-0.1515,-0.1081,-0.1077,-0.1075,-0.1073,0,-0.0335,-0.0339,-0.0342,-0.0309,-0.0295,-0.0279,-0.0271,-0.0247,-0.0289,-0.0259,-0.0222,-0.0234,-0.0455,-0.0545,-0.081,-0.0951,-0.125,-0.1152,-0.1298,-0.1222,-0.1259,-0.1316,-0.1026,-0.105,-0.1052,-0.1054,-0.1055,-0.1056,-0.0288,-0.0265,-0.0246,-0.0207,-0.0183,-0.0116,-0.0044,-0.0007,0.0074,0.02,0.0087,0.0195,-0.0076,-0.0402,-0.0663,-0.1014,-0.1114,-0.1088,-0.1213,-0.1292,-0.1311,-0.0958,-0.0957,-0.0958,-0.096,-0.0961,-0.0962,0,-0.0197,-0.0167,-0.0135,-0.0067,0.0015,-0.0006,0.0083,0.0204,0.0396,0.0515,0.0617,0.0618,0.0314,-0.0112,-0.0624,-0.0962,-0.1133,-0.1175,-0.1259,-0.1313,-0.1026,-0.0972,-0.0903,-0.0903,-0.0903,-0.0903,-0.0903,-0.0903,-0.014,-0.0069,-0.0044,0.0124,0.0187,0.035,0.0445,0.0619,0.0756,0.1035,0.1185,0.1204,0.0886,-0.0146,-0.0897,-0.1118,-0.1395,-0.1427,-0.165,-0.1443,-0.1445,-0.1446,-0.1417,-0.1443,-0.1444,-0.1817,-0.1821,-0.1824]}],[{"header":{"parameterUnit":"m.s-1","parameterCategory":2,"la1":30.2991,"la2":30.254,"lo1":-89.0895,"lo2":-89.0444,"dy":0.0017,"dx":0.0017,"nx":28,"ny":28,"refTime":"2023-09-08T03:00:00:Z","depth":"2","parameterNumber":2,"parameterNumberName":"U-component_of_CURRENTS"},"data":[0,0,0,0,0,0,0,0,0,0,0,0,0,0,0,0,0,0,0,0,0,0,0,0,0,0,0,0,0,0,0,0,0,0,0,0,0,0,0,0,0,0,0,0,0,0,0,0,0,0,0,0,0,0,0,0,0,0,0.1843,0.1844,0,0.1867,0.1867,0.1867,0.1879,0.188,0.188,0.188,0.1891,0.1891,0.1892,0,0,0,0,0,0,0,0,0,0,0,0,0,0.179,0.1791,0.1843,0.1844,0.1844,0.1867,0.1867,0.1867,0.1879,0.188,0.188,0.188,0.1891,0.1891,0.1892,0,0,0,0,0,0,0,0,0,0,0,0,0,0.1812,0.1792,0.1843,0.1855,0.1856,0.1867,0.1867,0.1867,0.1879,0.188,0.188,0.188,0.1891,0.1891,0.1892,0.1886,0,0,0.1892,0.1892,0,0,0,0,0,0,0,0,0.181,0.1813,0.1852,0.1854,0.1856,0.1872,0.1853,0.1874,0.1879,0.1868,0.188,0.188,0.1885,0.1886,0.1887,0.1887,0.1887,0.1892,0.1892,0.1892,0.1892,0,0,0,0,0,0,0,0.1809,0.1812,0.185,0.1853,0.1855,0.1853,0.1856,0.1856,0.1873,0.1869,0.1871,0.1877,0.1886,0.1886,0.1887,0.1887,0.1892,0.1892,0.1892,0.1892,0.1952,0.1953,0,0,0,0,0,0,0.1811,0.1811,0.185,0.1851,0.1836,0.1853,0.1857,0.1865,0.1873,0.1875,0.1876,0.1877,0.1886,0.1887,0.1887,0.1966,0.1892,0.1892,0.1892,0.195,0.1952,0.1953,0,0,0,0,0,0,0.181,0.1814,0.1849,0.1833,0.1838,0.1854,0.1863,0.1865,0.188,0.1879,0.1881,0.1891,0.1886,0.1887,0.1902,0.1963,0.1892,0.1893,0.1948,0.1951,0.1953,0.2069,0,0,0,0,0,0,0.1808,0.1814,0.1822,0.1833,0.1839,0.1878,0.1863,0.1866,0.1883,0.1885,0.1891,0.1892,0.1887,0.1902,0.1903,0.1962,0.1893,0.1946,0.1949,0.1952,0.2064,0.2075,0.2085,0,0,0,0,0,0.1806,0.1818,0.1822,0.1827,0.1849,0.188,0.1883,0.1893,0.1884,0.1904,0.19,0.1892,0.1921,0.1903,0.1903,0.1965,0.1945,0.1949,0.1952,0.2059,0.2073,0.2085,0,0,0,0,0,0,0.1794,0.1821,0.1825,0.1843,0.1871,0.1884,0.1896,0.1901,0.1912,0.191,0.1901,0.1902,0.1949,0.1926,0.1907,0.1988,0.1936,0.194,0.2018,0.2031,0.2041,0.2035,0.1893,0,0,0,0,0,0.1796,0.1822,0.1842,0.1862,0.187,0.1883,0.1895,0.1908,0.1918,0.1924,0.1929,0.1934,0.196,0.1969,0.1982,0.2011,0.1994,0.2052,0.2063,0.2072,0.2066,0.208,0.2092,0.1964,0.1964,0.1964,0,0,0.1796,0.1818,0.183,0.1863,0.1875,0.1918,0.1891,0.1921,0.1966,0.1922,0.1973,0.1974,0.1975,0.2025,0.2043,0.2015,0.2106,0.2076,0.2085,0.2073,0.2085,0.2097,0.2108,0.1967,0.1966,0.1966,0,0,0.1827,0.1827,0.1864,0.1897,0.1933,0.1943,0.1957,0.1981,0.1998,0.2034,0.2033,0.206,0.2078,0.2107,0.2119,0.2188,0.2167,0.22,0.2249,0.2265,0.2275,0.2284,0.2309,0.2319,0.2201,0.2202,0.2202,0,0.183,0.1881,0.188,0.1935,0.1966,0.1962,0.2014,0.2037,0.207,0.2085,0.2064,0.2114,0.2122,0.2193,0.2224,0.2219,0.2214,0.2206,0.228,0.2288,0.2295,0.2318,0.2328,0.2207,0.2207,0.2206,0.2206,0,0.1887,0.1945,0.1968,0.2038,0.2067,0.2111,0.2141,0.2171,0.2172,0.2191,0.2243,0.2244,0.2265,0.2294,0.2279,0.2352,0.2331,0.2299,0.225,0.2315,0.2335,0.2343,0.2216,0.2214,0.2212,0.2211,0,0,0.1869,0.1986,0.2,0.2048,0.2126,0.2144,0.2221,0.2272,0.2302,0.2331,0.237,0.2424,0.24,0.241,0.241,0.2427,0.2494,0.2384,0.2382,0.2414,0.2535,0.255,0.256,0.2471,0.2472,0.2473,0.2539,0,0.1922,0.2031,0.208,0.2183,0.2235,0.2268,0.2329,0.2375,0.2394,0.2429,0.2441,0.2469,0.2454,0.2456,0.2482,0.2482,0.2515,0.2479,0.2459,0.2459,0.247,0.257,0.2345,0.2387,0.2547,0.2548,0.2549,0,0.1982,0.2039,0.2142,0.2248,0.2266,0.2318,0.2376,0.2435,0.2493,0.2502,0.2535,0.253,0.2582,0.2533,0.2586,0.2559,0.2558,0.2555,0.2556,0.2528,0.2489,0.2339,0.2394,0.2561,0.256,0.2559,0.2559,0,0.1965,0.2096,0.2166,0.2206,0.2309,0.2342,0.2382,0.2448,0.2477,0.2537,0.2545,0.2601,0.2606,0.2623,0.2632,0.2602,0.2673,0.2627,0.2651,0.2652,0.2434,0.2414,0.2665,0.2664,0.2664,0.2664,0.2664,0,0.2025,0.208,0.2153,0.2191,0.2232,0.2316,0.2361,0.2411,0.2475,0.2519,0.2562,0.2603,0.262,0.2662,0.2664,0.2701,0.2705,0.2684,0.2678,0.2474,0.2457,0.2569,0.2557,0.2667,0.2666,0.2666,0.2665,0,0.2015,0.209,0.2146,0.2219,0.2237,0.2251,0.2321,0.2354,0.2425,0.2485,0.2499,0.2594,0.2677,0.2713,0.2755,0.2739,0.277,0.2779,0.2554,0.2523,0.2728,0.2722,0.2811,0.2812,0.2813,0.2814,0.2815,0,0.2023,0.2054,0.2107,0.2121,0.2151,0.2185,0.2217,0.2303,0.2348,0.2491,0.2518,0.2627,0.2697,0.2788,0.2785,0.2816,0.2846,0.2628,0.2541,0.2762,0.2748,0.2739,0.2731,0.2298,0.2295,0.2292,0.229,0,0.1985,0.1994,0.2019,0.2047,0.2074,0.2104,0.2164,0.2186,0.2316,0.2369,0.2496,0.2567,0.2692,0.2637,0.2688,0.2673,0.2607,0.2575,0.2848,0.2318,0.229,0.2273,0.2279,0.2264,0.2267,0.2268,0.227,0.2271,0.191,0.1901,0.1935,0.1946,0.1991,0.2026,0.2003,0.2077,0.2125,0.2182,0.236,0.2386,0.2437,0.2415,0.2387,0.2385,0.2551,0.2418,0.2421,0.2428,0.2379,0.2357,0.2334,0.2337,0.2339,0.2341,0.2343,0,0.1802,0.182,0.1837,0.1859,0.1862,0.1932,0.1964,0.1922,0.1919,0.203,0.2077,0.1961,0.1949,0.2049,0.2006,0.2039,0.1953,0.1974,0.1818,0.1847,0.1873,0.1788,0.159,0.1587,0.1585,0.1583,0,0,0.1755,0.1726,0.1736,0.1712,0.1743,0.172,0.1708,0.1658,0.1684,0.1658,0.1665,0.1765,0.1945,0.1685,0.1695,0.1642,0.1716,0.1588,0.2195,0.2037,0.2058,0.2143,0.2052,0,0,0,0,0]},{"header":{"parameterUnit":"m.s-1","parameterCategory":2,"la1":30.2991,"la2":30.254,"lo1":-89.0895,"lo2":-89.0444,"dy":0.0017,"dx":0.0017,"nx":28,"ny":28,"refTime":"2023-09-08T03:00:00:Z","depth":"2","parameterNumber":3,"parameterNumberName":"V-component_of_CURRENTS"},"data":[0,0,0,0,0,0,0,0,0,0,0,0,0,0,0,0,0,0,0,0,0,0,0,0,0,0,0,0,0,0,0,0,0,0,0,0,0,0,0,0,0,0,0,0,0,0,0,0,0,0,0,0,0,0,0,0,0,0,0.0019,0.0019,0,-0.0041,-0.0042,-0.0042,-0.0089,-0.0089,-0.009,-0.009,-0.0176,-0.0178,-0.018,0,0,0,0,0,0,0,0,0,0,0,0,0,0.005,0.0049,0.0019,0.0018,0.0018,-0.0041,-0.0042,-0.0043,-0.0089,-0.0089,-0.009,-0.009,-0.0175,-0.0178,-0.018,0,0,0,0,0,0,0,0,0,0,0,0,0,0.0016,0.0049,0.0019,-0.0011,-0.0014,-0.004,-0.0042,-0.0043,-0.0089,-0.0089,-0.009,-0.009,-0.0175,-0.0178,-0.0181,-0.0191,0,0,-0.019,-0.0191,0,0,0,0,0,0,0,0,0.0018,0.0015,-0.0006,-0.0009,-0.0012,-0.0056,-0.0062,-0.0093,-0.0089,-0.0063,-0.009,-0.009,-0.0137,-0.0143,-0.0156,-0.0195,-0.0199,-0.019,-0.0192,-0.0193,-0.0194,0,0,0,0,0,0,0,0.002,0.0017,-0.0007,-0.0006,-0.001,-0.0036,-0.0041,-0.0069,-0.0099,-0.0065,-0.0068,-0.0071,-0.0139,-0.0153,-0.0158,-0.02,-0.019,-0.0193,-0.0195,-0.0196,-0.0298,-0.0299,0,0,0,0,0,0,0.0034,0.0019,-0.0005,-0.0008,0.0004,-0.0036,-0.0042,-0.0043,-0.0098,-0.0106,-0.0071,-0.0073,-0.0147,-0.0154,-0.0161,-0.0242,-0.0193,-0.0196,-0.0198,-0.0297,-0.0298,-0.0299,0,0,0,0,0,0,0.0035,0.0033,-0.0002,0.0005,-0.0001,-0.0036,-0.0037,-0.0044,-0.0061,-0.0102,-0.0111,-0.0081,-0.0148,-0.0157,-0.0186,-0.0244,-0.0197,-0.02,-0.0296,-0.0297,-0.0298,-0.0363,0,0,0,0,0,0,0.0037,0.0034,0.0036,0.0007,-0.0,-0.0022,-0.0037,-0.0045,-0.0062,-0.0066,-0.0113,-0.0122,-0.0149,-0.0181,-0.0189,-0.0247,-0.0203,-0.0295,-0.0296,-0.0298,-0.036,-0.0366,-0.0372,0,0,0,0,0,0.0038,0.0046,0.0036,0.0033,0.0004,-0.0022,-0.0028,-0.0056,-0.0062,-0.0072,-0.0099,-0.012,-0.0198,-0.0183,-0.0193,-0.0253,-0.0294,-0.0296,-0.0298,-0.0357,-0.0365,-0.0372,0,0,0,0,0,0,0.0059,0.0041,0.003,0.0031,0.0005,-0.0029,-0.003,-0.0053,-0.0083,-0.0082,-0.0121,-0.0132,-0.0194,-0.0194,-0.0177,-0.0284,-0.0254,-0.0258,-0.0296,-0.0304,-0.031,-0.0262,-0.0205,0,0,0,0,0,0.0066,0.0066,0.0039,0.0037,0.0035,0.0002,-0.001,-0.0034,-0.0061,-0.0075,-0.0107,-0.0145,-0.0209,-0.0227,-0.0271,-0.0309,-0.0301,-0.0354,-0.036,-0.0366,-0.0331,-0.0376,-0.0384,-0.0305,-0.0305,-0.0305,0,0,0.0073,0.0064,0.0062,0.0041,0.0028,0.0008,-0.0007,-0.0023,-0.0049,-0.0078,-0.0111,-0.017,-0.0224,-0.0289,-0.0316,-0.0294,-0.0387,-0.0368,-0.0373,-0.0334,-0.0379,-0.0387,-0.0394,-0.0307,-0.0306,-0.0306,0,0,0.0085,0.0084,0.0086,0.0065,0.0043,0.0019,0.0015,-0.0018,-0.0037,-0.0073,-0.0129,-0.0193,-0.0253,-0.0318,-0.0358,-0.0409,-0.0427,-0.0446,-0.0434,-0.0481,-0.0487,-0.0493,-0.0505,-0.0512,-0.0439,-0.0439,-0.0439,0,0.0092,0.0091,0.008,0.007,0.0062,0.0026,0.0018,-0.0015,-0.0061,-0.007,-0.0081,-0.0205,-0.0265,-0.0364,-0.0403,-0.0427,-0.044,-0.0412,-0.0489,-0.0494,-0.0499,-0.0511,-0.0517,-0.0443,-0.0442,-0.0442,-0.0442,0,0.0113,0.0093,0.0098,0.0073,0.0058,0.0049,0.0009,-0.0009,-0.0031,-0.0069,-0.0144,-0.0225,-0.0295,-0.0357,-0.0402,-0.0492,-0.0489,-0.0506,-0.0472,-0.0511,-0.0521,-0.0526,-0.0447,-0.0446,-0.0445,-0.0444,0,0,0.0157,0.0122,0.0117,0.011,0.0065,0.0061,0.0027,-0.0005,-0.0012,-0.0082,-0.0106,-0.0252,-0.0296,-0.0341,-0.0431,-0.0476,-0.0558,-0.0507,-0.0508,-0.0519,-0.0644,-0.0555,-0.0552,-0.0605,-0.0606,-0.0606,-0.0642,0,0.0172,0.0169,0.014,0.012,0.0118,0.0082,0.006,0.0021,-0.0014,-0.0049,-0.0145,-0.0222,-0.0296,-0.0356,-0.0419,-0.053,-0.0572,-0.0544,-0.06,-0.06,-0.0519,-0.0555,-0.0534,-0.0556,-0.0647,-0.0647,-0.0648,0,0.0189,0.0191,0.0185,0.0163,0.0166,0.0135,0.0129,0.0098,0.0029,0.0002,-0.0083,-0.016,-0.0284,-0.0327,-0.0485,-0.0471,-0.0552,-0.0613,-0.0617,-0.0501,-0.052,-0.0528,-0.0561,-0.0656,-0.0655,-0.0655,-0.0654,0,0.0239,0.0212,0.022,0.021,0.018,0.0172,0.0152,0.0106,0.0104,0.0008,-0.0006,-0.0141,-0.0225,-0.0335,-0.047,-0.0498,-0.0596,-0.0651,-0.0632,-0.0626,-0.0593,-0.0581,-0.073,-0.073,-0.073,-0.073,-0.073,0,0.0261,0.0261,0.0237,0.0241,0.0255,0.0213,0.0216,0.018,0.0139,0.0147,0.0,-0.0005,-0.0235,-0.0317,-0.0436,-0.0525,-0.0574,-0.0611,-0.0628,-0.0614,-0.0604,-0.0671,-0.0664,-0.0731,-0.0731,-0.073,-0.073,0,0.0289,0.0272,0.0283,0.0275,0.0263,0.0269,0.0252,0.0272,0.0205,0.0208,0.0174,0.0062,-0.0039,-0.021,-0.0384,-0.0472,-0.0568,-0.0584,-0.0528,-0.0536,-0.0579,-0.0575,-0.0582,-0.0579,-0.0577,-0.0575,-0.0573,0,0.0315,0.0315,0.0319,0.0332,0.0315,0.0314,0.0329,0.029,0.0327,0.0293,0.0324,0.0206,0.0219,0.0013,-0.0206,-0.0373,-0.0461,-0.0467,-0.051,-0.0547,-0.0564,-0.0564,-0.0563,-0.0513,-0.0511,-0.051,-0.0508,0,0.0364,0.0351,0.0369,0.0401,0.041,0.0445,0.0465,0.052,0.051,0.0553,0.0644,0.0656,0.042,0.0258,-0.0026,-0.0149,-0.0442,-0.0433,-0.0514,-0.0526,-0.0477,-0.0495,-0.0498,-0.0493,-0.0495,-0.0496,-0.0497,-0.0497,0.0401,0.0434,0.0455,0.0491,0.0508,0.0594,0.0664,0.0741,0.0861,0.0925,0.0927,0.0918,0.0641,0.031,0.0069,-0.0261,-0.0256,-0.0389,-0.0398,-0.0407,-0.0365,-0.0312,-0.0288,-0.0289,-0.0289,-0.0289,-0.0289,0,0.0461,0.0502,0.0551,0.0612,0.0673,0.0654,0.0777,0.0863,0.1063,0.1099,0.1184,0.0972,0.0773,0.0412,-0.0028,-0.0233,-0.0315,-0.0338,-0.0415,-0.0425,-0.0435,-0.04,-0.033,-0.0331,-0.0332,-0.0333,0,0,0.0487,0.0569,0.0615,0.0748,0.0793,0.0896,0.0987,0.111,0.1168,0.1268,0.1238,0.1179,0.0826,0.0496,0.0173,-0.0094,-0.0216,-0.0147,-0.0083,-0.0143,-0.0152,-0.0423,-0.0372,0,0,0,0,0]}],[{"header":{"parameterUnit":"m.s-1","parameterCategory":2,"la1":30.2991,"la2":30.254,"lo1":-89.0895,"lo2":-89.0444,"dy":0.0017,"dx":0.0017,"nx":28,"ny":28,"refTime":"2023-09-08T03:00:00:Z","depth":"4","parameterNumber":2,"parameterNumberName":"U-component_of_CURRENTS"},"data":[0,0,0,0,0,0,0,0,0,0,0,0,0,0,0,0,0,0,0,0,0,0,0,0,0,0,0,0,0,0,0,0,0,0,0,0,0,0,0,0,0,0,0,0,0,0,0,0,0,0,0,0,0,0,0,0,0,0,0.1029,0.103,0,0.1064,0.1064,0.1064,0.1112,0.1113,0.1114,0.1116,0.1182,0.1183,0.1183,0,0,0,0,0,0,0,0,0,0,0,0,0,0.0978,0.0978,0.1029,0.103,0.1031,0.1064,0.1064,0.1064,0.1112,0.1113,0.1115,0.1116,0.1182,0.1183,0.1183,0,0,0,0,0,0,0,0,0,0,0,0,0,0.1,0.0978,0.1029,0.1062,0.1066,0.1064,0.1064,0.1064,0.1111,0.1113,0.1115,0.1117,0.1182,0.1182,0.1183,0.1151,0,0,0.1186,0.1186,0,0,0,0,0,0,0,0,0.0999,0.1001,0.1056,0.106,0.1064,0.109,0.107,0.1096,0.1111,0.1089,0.1116,0.1118,0.1156,0.1159,0.1154,0.1154,0.1157,0.1186,0.1187,0.1187,0.1187,0,0,0,0,0,0,0,0.0997,0.1,0.1038,0.1057,0.1062,0.1067,0.1072,0.1075,0.1108,0.1091,0.1096,0.1107,0.1158,0.1153,0.1156,0.1158,0.1186,0.1187,0.1187,0.1188,0.1246,0.1247,0,0,0,0,0,0,0.1002,0.0999,0.1037,0.1039,0.1041,0.1067,0.1072,0.1076,0.1108,0.1115,0.1105,0.1109,0.115,0.1155,0.1159,0.1214,0.1187,0.1188,0.1188,0.1245,0.1246,0.1247,0,0,0,0,0,0,0.1001,0.1005,0.1035,0.1024,0.1029,0.1066,0.1069,0.1075,0.1099,0.1119,0.1127,0.1127,0.1152,0.1157,0.1192,0.1214,0.1188,0.1189,0.1244,0.1245,0.1247,0.1267,0,0,0,0,0,0,0.0999,0.1004,0.1014,0.1024,0.103,0.1055,0.1068,0.1075,0.1103,0.1109,0.1139,0.1145,0.1154,0.1191,0.1193,0.1215,0.119,0.1242,0.1244,0.1246,0.1265,0.1269,0.1273,0,0,0,0,0,0.0997,0.1005,0.1014,0.102,0.1041,0.1056,0.1059,0.1088,0.1103,0.1115,0.1141,0.1146,0.1205,0.1192,0.1194,0.1217,0.1241,0.1244,0.1246,0.1264,0.1268,0.1273,0,0,0,0,0,0,0.0989,0.1011,0.1022,0.1037,0.1056,0.1067,0.1082,0.1096,0.1122,0.1138,0.1152,0.116,0.12,0.1203,0.1189,0.1241,0.1226,0.1229,0.1239,0.1244,0.1247,0.126,0.119,0,0,0,0,0,0.099,0.1003,0.1023,0.1037,0.1047,0.1064,0.1077,0.1098,0.112,0.1134,0.1156,0.1181,0.1203,0.1221,0.1238,0.1259,0.1274,0.1278,0.1282,0.1285,0.1299,0.1345,0.1354,0.1255,0.1255,0.1255,0,0,0.0993,0.1006,0.1015,0.1037,0.105,0.1058,0.1077,0.1104,0.1122,0.1136,0.1171,0.1193,0.1211,0.1243,0.1262,0.1255,0.1318,0.1288,0.129,0.1303,0.1348,0.1358,0.1367,0.1256,0.1256,0.1256,0,0,0.0986,0.1013,0.1014,0.1028,0.1059,0.1073,0.1086,0.1111,0.114,0.117,0.119,0.1233,0.1255,0.1281,0.1293,0.1326,0.1335,0.1331,0.1363,0.1407,0.1416,0.1423,0.1439,0.1448,0.1335,0.1335,0.1335,0,0.0988,0.0989,0.1019,0.1019,0.104,0.1079,0.1088,0.111,0.1149,0.1183,0.1192,0.1263,0.1275,0.1324,0.1338,0.1335,0.1354,0.1341,0.1412,0.142,0.1428,0.1443,0.1452,0.1336,0.1336,0.1336,0.1336,0,0.097,0.098,0.0984,0.0999,0.1028,0.1044,0.1086,0.1128,0.117,0.1199,0.1273,0.1301,0.1352,0.1358,0.1356,0.142,0.1411,0.1409,0.1399,0.1439,0.1452,0.1462,0.1338,0.1337,0.1337,0.1337,0,0,0.0944,0.0966,0.0969,0.0983,0.1024,0.1049,0.1095,0.1153,0.1201,0.1254,0.1316,0.1362,0.1402,0.142,0.1436,0.1472,0.1528,0.1466,0.1468,0.1479,0.1614,0.151,0.1511,0.1542,0.1544,0.1546,0.1594,0,0.092,0.0923,0.0946,0.0969,0.0981,0.1045,0.1086,0.1156,0.122,0.1288,0.1354,0.1415,0.1417,0.1458,0.1496,0.1525,0.1559,0.1514,0.1576,0.1578,0.148,0.1521,0.1553,0.1602,0.1604,0.1606,0.1607,0,0.0882,0.0901,0.0914,0.0975,0.099,0.1019,0.113,0.1172,0.1276,0.1334,0.142,0.1466,0.1544,0.1534,0.1622,0.1597,0.1613,0.1627,0.1629,0.1536,0.1493,0.1559,0.1625,0.1623,0.1622,0.1621,0.162,0,0.0851,0.0879,0.09,0.0914,0.0983,0.1031,0.1089,0.1195,0.1246,0.1376,0.143,0.153,0.159,0.1641,0.168,0.1662,0.1759,0.1734,0.1655,0.1647,0.1716,0.1707,0.1797,0.1797,0.1797,0.1796,0.1796,0,0.0805,0.0823,0.0893,0.0902,0.0962,0.1028,0.1105,0.1186,0.1285,0.1343,0.1455,0.1505,0.1623,0.1685,0.1707,0.1713,0.1788,0.1671,0.1661,0.172,0.1711,0.1722,0.1712,0.1798,0.1798,0.1797,0.1797,0,0.0747,0.0783,0.0812,0.0901,0.0939,0.099,0.1099,0.1147,0.1261,0.1341,0.1386,0.1508,0.1599,0.1692,0.1776,0.1735,0.1758,0.1741,0.1797,0.1788,0.1605,0.1596,0.1649,0.1646,0.1643,0.1641,0.1639,0,0.0711,0.0719,0.0806,0.0838,0.0877,0.0961,0.1013,0.1131,0.1176,0.1316,0.1337,0.1467,0.1545,0.1588,0.1681,0.1741,0.1724,0.1714,0.1658,0.1609,0.1595,0.159,0.1585,0.1635,0.1634,0.1634,0.1633,0,0.0656,0.0688,0.0716,0.0782,0.084,0.0889,0.0973,0.1,0.1126,0.1226,0.1279,0.1339,0.1437,0.1516,0.1595,0.162,0.1709,0.1686,0.1691,0.1638,0.1593,0.158,0.1578,0.1624,0.1625,0.1626,0.1627,0,0.0616,0.0623,0.0668,0.0723,0.0781,0.081,0.0865,0.0925,0.0985,0.1144,0.1144,0.129,0.1403,0.1451,0.1504,0.1552,0.1524,0.1463,0.1478,0.1489,0.1419,0.1337,0.1291,0,0,0,0,0,0.0577,0.0584,0.0615,0.0666,0.0712,0.0757,0.0832,0.0885,0.1005,0.1014,0.1084,0.117,0.126,0.1318,0.1342,0.1439,0.1534,0.1456,0.1472,0.1574,0.1585,0.1519,0,0,0,0,0,0,0.0551,0.0575,0.0588,0.0604,0.0633,0.068,0.0729,0.0806,0.0822,0.0947,0.1009,0.1093,0.121,0.1256,0.1321,0.1344,0.1327,0.1544,0.154,0.1568,0.1578,0.1586,0.1522,0,0,0,0,0]},{"header":{"parameterUnit":"m.s-1","parameterCategory":2,"la1":30.2991,"la2":30.254,"lo1":-89.0895,"lo2":-89.0444,"dy":0.0017,"dx":0.0017,"nx":28,"ny":28,"refTime":"2023-09-08T03:00:00:Z","depth":"4","parameterNumber":3,"parameterNumberName":"V-component_of_CURRENTS"},"data":[0,0,0,0,0,0,0,0,0,0,0,0,0,0,0,0,0,0,0,0,0,0,0,0,0,0,0,0,0,0,0,0,0,0,0,0,0,0,0,0,0,0,0,0,0,0,0,0,0,0,0,0,0,0,0,0,0,0,0.0161,0.0161,0,0.0129,0.0129,0.0129,0.0098,0.0097,0.0097,0.0097,0.0043,0.0042,0.0041,0,0,0,0,0,0,0,0,0,0,0,0,0,0.0183,0.0183,0.0161,0.0161,0.016,0.0129,0.0129,0.0129,0.0098,0.0097,0.0097,0.0096,0.0044,0.0042,0.0041,0,0,0,0,0,0,0,0,0,0,0,0,0,0.0165,0.0183,0.0161,0.0141,0.0139,0.013,0.0129,0.0128,0.0098,0.0097,0.0097,0.0096,0.0044,0.0043,0.0041,0.0044,0,0,0.0036,0.0036,0,0,0,0,0,0,0,0,0.0166,0.0164,0.0144,0.0142,0.014,0.0117,0.0117,0.0099,0.0098,0.0113,0.0097,0.0096,0.0066,0.0063,0.0059,0.0041,0.0039,0.0036,0.0035,0.0035,0.0034,0,0,0,0,0,0,0,0.0167,0.0165,0.0148,0.0144,0.0141,0.013,0.0127,0.0114,0.0093,0.0112,0.011,0.0107,0.0065,0.006,0.0057,0.0038,0.0036,0.0035,0.0034,0.0033,0.006,0.0061,0,0,0,0,0,0,0.0173,0.0167,0.0149,0.0147,0.0152,0.013,0.0126,0.0125,0.0094,0.0089,0.0107,0.0105,0.0063,0.0059,0.0055,0.0106,0.0035,0.0033,0.0032,0.0058,0.006,0.0062,0,0,0,0,0,0,0.0173,0.0171,0.0151,0.0156,0.0153,0.013,0.0129,0.0125,0.012,0.009,0.0085,0.0107,0.0063,0.0057,0.0061,0.0101,0.0032,0.0031,0.0056,0.0059,0.0061,0.0175,0,0,0,0,0,0,0.0174,0.0172,0.0175,0.0157,0.0153,0.0159,0.0129,0.0124,0.0119,0.0116,0.0088,0.0083,0.0062,0.0064,0.0059,0.0098,0.003,0.0054,0.0057,0.006,0.0169,0.0181,0.0191,0,0,0,0,0,0.0175,0.0187,0.0176,0.0173,0.0157,0.016,0.0158,0.0139,0.012,0.013,0.0114,0.0083,0.008,0.0064,0.0058,0.0097,0.0052,0.0056,0.006,0.0164,0.0179,0.0191,0,0,0,0,0,0,0.0194,0.0184,0.0171,0.0178,0.0174,0.0155,0.0165,0.0144,0.0138,0.0137,0.01,0.0095,0.0116,0.0088,0.0071,0.0114,0.0063,0.0066,0.0144,0.0157,0.0168,0.0171,0.0028,0,0,0,0,0,0.0201,0.0214,0.0195,0.0205,0.0205,0.0184,0.0181,0.017,0.016,0.0156,0.0139,0.0125,0.0127,0.0126,0.012,0.0139,0.0097,0.0161,0.0172,0.0182,0.0181,0.0152,0.016,0.0074,0.0074,0.0074,0,0,0.0211,0.0209,0.0214,0.0211,0.0208,0.0233,0.0182,0.0191,0.0215,0.0152,0.0184,0.0162,0.014,0.017,0.0177,0.0152,0.0188,0.0187,0.0195,0.0188,0.0157,0.0165,0.0172,0.0076,0.0076,0.0075,0,0,0.0259,0.0239,0.0273,0.0277,0.0279,0.0269,0.0274,0.0262,0.0261,0.0282,0.0251,0.0251,0.0249,0.0247,0.0244,0.0308,0.0247,0.0308,0.0368,0.0341,0.0348,0.0353,0.0323,0.0325,0.0315,0.0315,0.0315,0,0.0272,0.0307,0.0283,0.0321,0.0332,0.0293,0.0333,0.0334,0.0327,0.0327,0.031,0.0307,0.0291,0.032,0.0349,0.0335,0.0301,0.0322,0.0355,0.0359,0.0362,0.0331,0.0331,0.0321,0.032,0.032,0.0319,0,0.0345,0.0376,0.0398,0.0435,0.0445,0.0471,0.0466,0.0474,0.0461,0.045,0.0465,0.0441,0.0432,0.0439,0.0416,0.0441,0.0404,0.0372,0.0321,0.0378,0.0341,0.0339,0.0329,0.0327,0.0326,0.0324,0,0,0.0379,0.0437,0.045,0.048,0.0503,0.0516,0.0562,0.0577,0.0591,0.0585,0.0602,0.0612,0.0569,0.0562,0.0531,0.0514,0.052,0.046,0.0455,0.043,0.0454,0.0406,0.0399,0.0488,0.0488,0.0488,0.0423,0,0.0447,0.0532,0.0546,0.0628,0.0665,0.065,0.0691,0.0697,0.0687,0.0693,0.0661,0.067,0.0627,0.0623,0.0602,0.0535,0.0518,0.054,0.0402,0.0398,0.0348,0.0396,0.0489,0.0422,0.0421,0.0421,0.042,0,0.0524,0.0567,0.0654,0.0711,0.0725,0.0771,0.0798,0.083,0.0824,0.0813,0.08,0.0757,0.0744,0.0694,0.0611,0.0623,0.0552,0.0496,0.0491,0.0401,0.0346,0.0348,0.0416,0.0416,0.0416,0.0417,0.0417,0,0.0559,0.0646,0.0712,0.0734,0.079,0.0827,0.0857,0.0867,0.0889,0.0889,0.0891,0.0846,0.0832,0.074,0.0628,0.0616,0.0519,0.0484,0.0376,0.0371,0.0381,0.0375,0.0426,0.0426,0.0426,0.0426,0.0426,0,0.062,0.0677,0.0736,0.0773,0.0846,0.0873,0.094,0.0953,0.0974,0.0994,0.0957,0.0948,0.0841,0.0766,0.0652,0.051,0.0536,0.0391,0.0354,0.0432,0.0434,0.0379,0.0375,0.0424,0.0424,0.0425,0.0425,0,0.065,0.0693,0.077,0.084,0.0871,0.0922,0.1004,0.1034,0.1057,0.1083,0.1088,0.1032,0.0928,0.0809,0.0657,0.0547,0.0413,0.0357,0.046,0.0428,0.0274,0.0277,0.0224,0.0222,0.022,0.0218,0.0217,0,0.0668,0.0713,0.0808,0.0853,0.0895,0.0975,0.1024,0.1074,0.1099,0.1116,0.1118,0.1051,0.0988,0.0749,0.0618,0.0408,0.0369,0.03,0.028,0.0286,0.0255,0.026,0.0265,0.0214,0.0214,0.0213,0.0213,0,0.069,0.0727,0.0779,0.0868,0.094,0.1012,0.1086,0.1109,0.1147,0.1179,0.1119,0.1006,0.089,0.0715,0.0569,0.0411,0.0343,0.028,0.0282,0.0263,0.0273,0.0246,0.0253,0.0206,0.0207,0.0208,0.0208,0,0.069,0.0721,0.0786,0.0858,0.0948,0.1007,0.1062,0.1084,0.1114,0.1127,0.11,0.0991,0.094,0.0715,0.057,0.0424,0.0368,0.0298,0.0298,0.0304,0.034,0.0367,0.0303,0,0,0,0,0,0.0673,0.0697,0.0768,0.084,0.0929,0.0974,0.107,0.111,0.1155,0.1104,0.1101,0.0983,0.0767,0.0688,0.0528,0.0523,0.0344,0.0328,0.0264,0.0171,0.0178,0.0203,0,0,0,0,0,0,0.0656,0.0713,0.0744,0.0805,0.0845,0.0932,0.0991,0.1031,0.1004,0.1034,0.0927,0.0901,0.0704,0.0843,0.0506,0.0468,0.0395,0.0248,0.0243,0.0167,0.0174,0.018,0.0207,0,0,0,0,0]}]]